• In Uzbekistan
  • List of Countries
  • For 7 days
  • Water Temperature
  • Satellite Maps
  • Weather Map
  • Weather Widgets
  • user-avatar
    Login

    Hourly Weather Mokhotlong

    Today, 18 October, Wednesday

    Time Temperature Precipitation Wind Pressure Humidity
    00:00 +6°C° 0 mm 1 mps 583 mmHg 54%
    01:00 +5°C° 0 mm 1 mps 583 mmHg 54%
    02:00 +5°C° 0 mm 1 mps 583 mmHg 57%
    03:00 +5°C° 0 mm 1 mps 583 mmHg 55%
    04:00 +5°C° 0 mm 1 mps 582 mmHg 53%
    05:00 +4°C° 0 mm 1 mps 582 mmHg 52%
    06:00 +7°C° 0 mm 1 mps 583 mmHg 43%
    07:00 +10°C° 0 mm 1 mps 585 mmHg 35%
    08:00 +13°C° 0 mm 1 mps 586 mmHg 26%
    09:00 +15°C° 0 mm 2 mps 587 mmHg 24%
    10:00 +17°C° 0 mm 2 mps 587 mmHg 21%
    11:00 +19°C° 0 mm 2 mps 588 mmHg 19%
    12:00 +20°C° 0 mm 3 mps 587 mmHg 17%
    13:00 +21°C° 0 mm 4 mps 587 mmHg 16%
    14:00 +22°C° 0 mm 5 mps 587 mmHg 15%
    15:00 +21°C° 0 mm 5 mps 587 mmHg 15%
    16:00 +21°C° 0 mm 5 mps 586 mmHg 15%
    17:00 +20°C° 0 mm 5 mps 586 mmHg 15%
    18:00 +18°C° 0 mm 4 mps 585 mmHg 20%
    19:00 +16°C° 0 mm 3 mps 584 mmHg 25%
    20:00 +13°C° 0 mm 2 mps 583 mmHg 31%
    21:00 +13°C° 0 mm 2 mps 583 mmHg 29%
    22:00 +13°C° 0 mm 2 mps 583 mmHg 27%
    23:00 +12°C° 0 mm 2 mps 583 mmHg 26%

    Tomorrow, 19 October, Thursday

    Time Temperature Precipitation Wind Pressure Humidity
    00:00 +12°C° 0 mm 2 mps 582 mmHg 25%
    01:00 +11°C° 0 mm 3 mps 582 mmHg 24%
    02:00 +11°C° 0 mm 3 mps 582 mmHg 23%
    03:00 +10°C° 0 mm 3 mps 581 mmHg 24%
    04:00 +10°C° 0 mm 3 mps 581 mmHg 25%
    05:00 +10°C° 0 mm 3 mps 581 mmHg 26%
    06:00 +12°C° 0 mm 4 mps 582 mmHg 23%
    07:00 +15°C° 0 mm 5 mps 583 mmHg 20%
    08:00 +18°C° 0 mm 7 mps 584 mmHg 17%
    09:00 +20°C° 0 mm 8 mps 585 mmHg 16%
    10:00 +22°C° 0 mm 9 mps 586 mmHg 14%
    11:00 +24°C° 0 mm 10 mps 586 mmHg 13%
    12:00 +24°C° 0 mm 10 mps 586 mmHg 13%
    13:00 +24°C° 0 mm 10 mps 586 mmHg 12%
    14:00 +26°C° 0 mm 11 mps 586 mmHg 12%
    15:00 +24°C° 0 mm 9 mps 586 mmHg 14%
    16:00 +23°C° 0 mm 8 mps 586 mmHg 15%
    17:00 +22°C° 0 mm 7 mps 586 mmHg 16%
    18:00 +19°C° 0 mm 5 mps 586 mmHg 23%
    19:00 +17°C° 0 mm 4 mps 586 mmHg 29%
    20:00 +15°C° 0 mm 2 mps 586 mmHg 35%
    21:00 +14°C° 0 mm 2 mps 585 mmHg 43%
    22:00 +12°C° 0 mm 2 mps 585 mmHg 52%
    23:00 +10°C° 0 mm 2 mps 585 mmHg 60%

    Day after tomorrow, 20 October, Friday

    Time Temperature Precipitation Wind Pressure Humidity
    00:00 +10°C° 0 mm 2 mps 585 mmHg 65%
    01:00 +9°C° 0 mm 2 mps 584 mmHg 70%
    02:00 +9°C° 0 mm 2 mps 584 mmHg 75%
    03:00 +9°C° 0 mm 1 mps 584 mmHg 75%
    04:00 +9°C° 0 mm 1 mps 584 mmHg 75%
    05:00 +9°C° 0 mm 1 mps 584 mmHg 75%
    06:00 +10°C° 0 mm 2 mps 585 mmHg 63%
    07:00 +13°C° 0 mm 2 mps 586 mmHg 51%
    08:00 +14°C° 0 mm 3 mps 587 mmHg 39%
    09:00 +17°C° 0 mm 4 mps 588 mmHg 34%
    10:00 +19°C° 0 mm 5 mps 588 mmHg 29%
    11:00 +21°C° 0 mm 7 mps 589 mmHg 24%
    12:00 +22°C° 0 mm 7 mps 589 mmHg 24%
    13:00 +22°C° 0 mm 8 mps 588 mmHg 24%
    14:00 +23°C° 0 mm 9 mps 588 mmHg 24%
    15:00 +22°C° 0 mm 8 mps 587 mmHg 27%
    16:00 +20°C° 0 mm 8 mps 587 mmHg 30%
    17:00 +18°C° 0 mm 7 mps 587 mmHg 32%
    18:00 +16°C° 0.1 mm 5 mps 587 mmHg 38%
    19:00 +15°C° 0.1 mm 4 mps 587 mmHg 43%
    20:00 +14°C° 0.1 mm 2 mps 587 mmHg 48%
    21:00 +13°C° 0 mm 2 mps 587 mmHg 52%
    22:00 +12°C° 0 mm 1 mps 587 mmHg 56%
    23:00 +11°C° 0 mm 1 mps 587 mmHg 60%

    21 October, Saturday

    Time Temperature Precipitation Wind Pressure Humidity
    00:00 +11°C° 0 mm 1 mps 586 mmHg 64%
    01:00 +10°C° 0 mm 1 mps 586 mmHg 68%
    02:00 +10°C° 0 mm 1 mps 586 mmHg 72%
    03:00 +9°C° 0 mm 1 mps 586 mmHg 72%
    04:00 +9°C° 0 mm 1 mps 586 mmHg 72%
    05:00 +8°C° 0 mm 0 mps 586 mmHg 71%
    06:00 +11°C° 0 mm 1 mps 587 mmHg 63%
    07:00 +13°C° 0 mm 1 mps 589 mmHg 54%
    08:00 +15°C° 0 mm 1 mps 590 mmHg 45%
    09:00 +16°C° 0 mm 2 mps 591 mmHg 41%
    10:00 +18°C° 0 mm 3 mps 591 mmHg 38%
    11:00 +19°C° 0 mm 4 mps 592 mmHg 34%
    12:00 +19°C° 0.3 mm 4 mps 591 mmHg 37%
    13:00 +19°C° 0.3 mm 5 mps 591 mmHg 39%
    14:00 +20°C° 0.3 mm 5 mps 590 mmHg 42%
    15:00 +19°C° 0.8 mm 4 mps 590 mmHg 46%
    16:00 +18°C° 0.8 mm 4 mps 589 mmHg 49%
    17:00 +17°C° 0.8 mm 3 mps 589 mmHg 53%
    18:00 +14°C° 0.1 mm 3 mps 589 mmHg 59%
    19:00 +13°C° 0.1 mm 3 mps 589 mmHg 66%
    20:00 +13°C° 0.1 mm 2 mps 589 mmHg 73%
    21:00 +12°C° 0.1 mm 2 mps 589 mmHg 76%
    22:00 +12°C° 0.1 mm 2 mps 589 mmHg 79%
    23:00 +12°C° 0.1 mm 2 mps 589 mmHg 82%

    22 October, Sunday

    Time Temperature Precipitation Wind Pressure Humidity
    00:00 +12°C° 0 mm 2 mps 589 mmHg 82%
    01:00 +10°C° 0 mm 2 mps 589 mmHg 83%
    02:00 +10°C° 0 mm 2 mps 588 mmHg 83%
    03:00 +11°C° 0 mm 1 mps 588 mmHg 83%
    04:00 +10°C° 0 mm 1 mps 588 mmHg 84%
    05:00 +10°C° 0 mm 1 mps 587 mmHg 84%
    06:00 +12°C° 0 mm 2 mps 588 mmHg 74%
    07:00 +14°C° 0 mm 2 mps 589 mmHg 64%
    08:00 +16°C° 0 mm 3 mps 591 mmHg 53%
    09:00 +18°C° 0 mm 4 mps 591 mmHg 45%
    10:00 +20°C° 0 mm 4 mps 591 mmHg 36%
    11:00 +23°C° 0 mm 5 mps 592 mmHg 28%
    12:00 +23°C° 0 mm 6 mps 591 mmHg 27%
    13:00 +24°C° 0 mm 6 mps 591 mmHg 26%
    14:00 +26°C° 0 mm 6 mps 591 mmHg 25%
    15:00 +24°C° 0 mm 6 mps 590 mmHg 28%
    16:00 +23°C° 0 mm 6 mps 590 mmHg 32%
    17:00 +22°C° 0 mm 5 mps 589 mmHg 35%
    18:00 +20°C° 0 mm 4 mps 589 mmHg 41%
    19:00 +18°C° 0 mm 2 mps 588 mmHg 47%
    20:00 +18°C° 0 mm 1 mps 588 mmHg 53%
    21:00 +18°C° 0 mm 1 mps 588 mmHg 54%
    22:00 +16°C° 0 mm 1 mps 588 mmHg 56%
    23:00 +16°C° 0 mm 1 mps 588 mmHg 58%

    23 October, Monday

    Time Temperature Precipitation Wind Pressure Humidity
    00:00 +16°C° 0 mm 1 mps 588 mmHg 60%
    01:00 +15°C° 0 mm 1 mps 588 mmHg 63%
    02:00 +15°C° 0 mm 2 mps 587 mmHg 66%
    03:00 +15°C° 0 mm 2 mps 587 mmHg 66%
    04:00 +14°C° 0 mm 2 mps 587 mmHg 67%
    05:00 +14°C° 0 mm 2 mps 587 mmHg 67%
    06:00 +16°C° 0 mm 2 mps 588 mmHg 61%
    07:00 +17°C° 0 mm 2 mps 589 mmHg 55%
    08:00 +19°C° 0 mm 2 mps 589 mmHg 50%
    09:00 +21°C° 0 mm 2 mps 590 mmHg 43%
    10:00 +24°C° 0 mm 3 mps 590 mmHg 36%
    11:00 +26°C° 0 mm 3 mps 590 mmHg 29%
    12:00 +26°C° 0 mm 4 mps 590 mmHg 26%
    13:00 +27°C° 0 mm 5 mps 590 mmHg 24%
    14:00 +28°C° 0 mm 6 mps 590 mmHg 21%
    15:00 +27°C° 0 mm 5 mps 589 mmHg 23%
    16:00 +26°C° 0 mm 5 mps 588 mmHg 25%
    17:00 +26°C° 0 mm 4 mps 588 mmHg 28%
    18:00 +22°C° 2 mm 4 mps 587 mmHg 39%
    19:00 +19°C° 2 mm 3 mps 587 mmHg 51%
    20:00 +17°C° 2 mm 3 mps 586 mmHg 63%
    21:00 +16°C° 3.2 mm 3 mps 586 mmHg 67%
    22:00 +14°C° 3.2 mm 3 mps 586 mmHg 71%
    23:00 +14°C° 3.2 mm 2 mps 586 mmHg 74%
    Show more